Aktuell
News
Messwerte
Diagramme
Archiv
Wettervorhersage
Regen
Wettergefahren

Astro & Geo
Health
Pegel
Gästebuch
Kontakt
Impressum
Datenschutz
App

Leicht bewölkt bei 1.7 °C – Luftdruck: 1023.4 hPa – Wind: SSO 3.2 km/h
Messwerte von 14:10 Uhr; Warnsymbol: Datenbasis DWD; Wetterzustand powered by OpenWeatherMap, CC BY-SA 4.0
Übersicht
Heute
Gestern
Vor 1 Jahr
Info
Vor 1 Jahr
 
Messwerte von Samstag, 30.11.2019
Symbol
Zeitpunkt
Wetter-
zustand
Zeitpunkt
Temperatur
Zeitpunkt
Luftfeuchte
Taupunkt
Zeitpunkt
Luftdruck
Zeitpunkt
Wind
Zeitpunkt
Windböen
Max 15 Min.
Wind-
richtung
Zeitpunkt
Regen
Summe 1 h
Regenrate
Max 15 Min.
UV-Index
Max 15 Min.
Pegel Köln
Zeitpunkt
Warnlage
Zeitpunkt
00:15 Leicht bewölkt3 3.4 °C 86 %
1.3 °C
1020.3 hPa 3.2 km/h
1 Bft
6.5 km/h
2 Bft
WSW -
0.0 mm/h
0.0 235 cm
00:30 Wolkig3 3.3 °C 86 %
1.2 °C
1020.4 hPa 1.4 km/h
1 Bft
6.5 km/h
2 Bft
NW -
0.0 mm/h
0.0 235 cm
00:45 Wolkig3 3.2 °C 86 %
1.1 °C
1020.5 hPa 3.2 km/h
1 Bft
6.5 km/h
2 Bft
W -
0.0 mm/h
0.0 235 cm
01:00 Wolkig3 3.0 °C 87 %
1.1 °C
1020.5 hPa 3.2 km/h
1 Bft
6.5 km/h
2 Bft
WNW 0.00 mm
0.0 mm/h
0.0 235 cm
01:15 Wolkig3 2.7 °C 88 %
0.9 °C
1020.5 hPa 3.2 km/h
1 Bft
4.7 km/h
1 Bft
W -
0.0 mm/h
0.0 235 cm
01:30 Wolkig3 2.7 °C 88 %
0.9 °C
1020.6 hPa 3.2 km/h
1 Bft
6.5 km/h
2 Bft
WNW -
0.0 mm/h
0.0 235 cm
01:45 Leicht bewölkt3 2.8 °C 88 %
1.0 °C
1020.8 hPa 3.2 km/h
1 Bft
6.5 km/h
2 Bft
NW -
0.0 mm/h
0.0 235 cm
02:00 Wolkenlos2 2.4 °C 89 %
0.8 °C
1020.9 hPa 1.4 km/h
1 Bft
4.7 km/h
1 Bft
NW 0.00 mm
0.0 mm/h
0.0 237 cm
02:15 Wolkenlos2 2.3 °C 89 %
0.7 °C
1021.1 hPa 1.4 km/h
1 Bft
3.2 km/h
1 Bft
NW -
0.0 mm/h
0.0 237 cm
02:30 Wolkenlos2 2.4 °C 89 %
0.8 °C
1021.4 hPa 0.0 km/h
0 Bft
3.2 km/h
1 Bft
NW -
0.0 mm/h
0.0 238 cm
02:45 Leicht bewölkt3 2.1 °C 90 %
0.6 °C
1021.7 hPa 0.0 km/h
0 Bft
1.4 km/h
1 Bft
NW -
0.0 mm/h
0.0 238 cm
03:00 Leicht bewölkt3 2.1 °C 89 %
0.5 °C
1021.9 hPa 1.4 km/h
1 Bft
1.4 km/h
1 Bft
NW 0.00 mm
0.0 mm/h
0.0 238 cm
03:15 Leicht bewölkt3 2.4 °C 90 %
0.9 °C
1021.9 hPa 0.0 km/h
0 Bft
3.2 km/h
1 Bft
SW -
0.0 mm/h
0.0 238 cm
03:30 Leicht bewölkt3 2.3 °C 89 %
0.7 °C
1022.1 hPa 1.4 km/h
1 Bft
3.2 km/h
1 Bft
SW -
0.0 mm/h
0.0 238 cm
03:45 Leicht bewölkt3 2.2 °C 90 %
0.7 °C
1022.1 hPa 0.0 km/h
0 Bft
3.2 km/h
1 Bft
SW -
0.0 mm/h
0.0 238 cm
04:00 Leicht bewölkt3 2.5 °C 89 %
0.9 °C
1022.2 hPa 1.4 km/h
1 Bft
3.2 km/h
1 Bft
SW 0.00 mm
0.0 mm/h
0.0 238 cm
04:15 Wolkig3 2.1 °C 89 %
0.5 °C
1022.4 hPa 0.3 km/h
0 Bft
3.2 km/h
1 Bft
SW -
0.0 mm/h
0.0 238 cm
04:30 Leicht bewölkt3 2.0 °C 89 %
0.4 °C
1022.5 hPa 1.4 km/h
1 Bft
3.2 km/h
1 Bft
SW -
0.0 mm/h
0.0 238 cm
04:45 Wolkenlos2 1.9 °C 90 %
0.4 °C
1022.5 hPa 0.3 km/h
0 Bft
1.4 km/h
1 Bft
SW -
0.0 mm/h
0.0 239 cm
05:00 Wolkenlos2 1.9 °C 91 %
0.6 °C
1022.5 hPa 0.0 km/h
0 Bft
1.4 km/h
1 Bft
SW 0.00 mm
0.0 mm/h
0.0 239 cm
05:15 Wolkenlos2 1.9 °C 90 %
0.4 °C
1022.6 hPa 0.0 km/h
0 Bft
0.0 km/h
0 Bft
SW -
0.0 mm/h
0.0 239 cm
05:30 Wolkenlos2 2.0 °C 90 %
0.5 °C
1022.7 hPa 0.0 km/h
0 Bft
0.0 km/h
0 Bft
SW -
0.0 mm/h
0.0 239 cm
05:45 Leicht bewölkt3 1.8 °C 90 %
0.3 °C
1022.9 hPa 1.4 km/h
1 Bft
3.2 km/h
1 Bft
SW -
0.0 mm/h
0.0 239 cm
06:00 Leicht bewölkt3 1.9 °C 91 %
0.6 °C
1022.8 hPa 0.0 km/h
0 Bft
1.4 km/h
1 Bft
SW 0.00 mm
0.0 mm/h
0.0 239 cm
06:15 Wolkig3 1.7 °C 91 %
0.4 °C
1022.8 hPa 0.0 km/h
0 Bft
3.2 km/h
1 Bft
S -
0.0 mm/h
0.0 239 cm
06:30 Wolkig3 1.6 °C 90 %
0.1 °C
1022.8 hPa 1.4 km/h
1 Bft
1.4 km/h
1 Bft
SSO -
0.0 mm/h
0.0 239 cm
06:45 Wolkig3 1.3 °C 91 %
-0.0 °C
1022.7 hPa 1.4 km/h
1 Bft
4.7 km/h
1 Bft
O -
0.0 mm/h
0.0 239 cm
07:00 Wolkig3 1.3 °C 91 %
-0.0 °C
1022.9 hPa 1.4 km/h
1 Bft
3.2 km/h
1 Bft
O 0.00 mm
0.0 mm/h
0.0 239 cm
07:15 Wolkig3 1.2 °C 91 %
-0.1 °C
1023.0 hPa 1.4 km/h
1 Bft
4.7 km/h
1 Bft
OSO -
0.0 mm/h
0.0 239 cm
07:30 Wolkig3 1.1 °C 92 %
-0.1 °C
1023.1 hPa 1.4 km/h
1 Bft
4.7 km/h
1 Bft
OSO -
0.0 mm/h
0.0 239 cm
07:45 Wolkenlos2 1.2 °C 92 %
0.0 °C
1023.1 hPa 1.4 km/h
1 Bft
4.7 km/h
1 Bft
OSO -
0.0 mm/h
0.0 239 cm
08:00 Wolkenlos2 1.1 °C 92 %
-0.1 °C
1023.1 hPa 1.4 km/h
1 Bft
4.7 km/h
1 Bft
OSO 0.00 mm
0.0 mm/h
0.0 239 cm
08:15 Leicht bewölkt3 0.9 °C 92 %
-0.2 °C
1023.3 hPa 3.2 km/h
1 Bft
6.5 km/h
2 Bft
OSO -
0.0 mm/h
0.0 242 cm
08:30 Wolkig3 1.1 °C 92 %
-0.1 °C
1023.4 hPa 3.2 km/h
1 Bft
6.5 km/h
2 Bft
OSO -
0.0 mm/h
0.0 241 cm
08:45 Wolkig3 0.9 °C 93 %
-0.1 °C
1023.6 hPa 3.2 km/h
1 Bft
6.5 km/h
2 Bft
OSO -
0.0 mm/h
0.0 241 cm
09:00 Wolkig3 1.0 °C 93 %
-0.0 °C
1023.8 hPa 2.9 km/h
1 Bft
4.7 km/h
1 Bft
O 0.00 mm
0.0 mm/h
0.0 241 cm
09:15 Wolkig3 1.1 °C 92 %
-0.1 °C
1023.9 hPa 3.2 km/h
1 Bft
6.5 km/h
2 Bft
OSO -
0.0 mm/h
0.0 242 cm
09:30 Wolkig3 1.3 °C 93 %
0.3 °C
1024.0 hPa 1.4 km/h
1 Bft
4.7 km/h
1 Bft
OSO -
0.0 mm/h
0.0 242 cm
09:45 Wolkig3 1.6 °C 92 %
0.4 °C
1024.1 hPa 3.2 km/h
1 Bft
4.7 km/h
1 Bft
OSO -
0.0 mm/h
0.0 242 cm
10:00 Wolkig3 1.9 °C 92 %
0.7 °C
1024.3 hPa 3.2 km/h
1 Bft
6.5 km/h
2 Bft
O 0.00 mm
0.0 mm/h
0.0 243 cm
10:15 Wolkig3 2.2 °C 91 %
0.9 °C
1024.2 hPa 3.2 km/h
1 Bft
6.5 km/h
2 Bft
O -
0.0 mm/h
0.0 244 cm
10:30 Wolkig3 2.4 °C 90 %
0.9 °C
1024.4 hPa 3.2 km/h
1 Bft
9.7 km/h
2 Bft
O -
0.0 mm/h
0.0 243 cm
10:45 Leicht bewölkt3 2.8 °C 89 %
1.2 °C
1024.5 hPa 3.2 km/h
1 Bft
6.5 km/h
2 Bft
OSO -
0.0 mm/h
0.0 242 cm
11:00 Leicht bewölkt3 3.2 °C 88 %
1.4 °C
1024.5 hPa 1.4 km/h
1 Bft
4.7 km/h
1 Bft
O 0.00 mm
0.0 mm/h
0.8 242 cm
11:15 Sonnig3 3.7 °C 86 %
1.6 °C
1024.5 hPa 1.4 km/h
1 Bft
4.7 km/h
1 Bft
OSO -
0.0 mm/h
0.8 242 cm
11:30 Sonnig3 3.9 °C 86 %
1.8 °C
1024.5 hPa 3.2 km/h
1 Bft
6.5 km/h
2 Bft
SO -
0.0 mm/h
0.9 242 cm
11:45 Leicht bewölkt3 4.3 °C 85 %
2.0 °C
1024.6 hPa 1.4 km/h
1 Bft
6.5 km/h
2 Bft
OSO -
0.0 mm/h
0.9 243 cm
12:00 Sonnig2 4.5 °C 84 %
2.0 °C
1024.5 hPa 3.2 km/h
1 Bft
9.7 km/h
2 Bft
O 0.00 mm
0.0 mm/h
1.0 243 cm
12:15 Leicht bewölkt3 4.8 °C 84 %
2.3 °C
1024.5 hPa 3.2 km/h
1 Bft
7.9 km/h
2 Bft
OSO -
0.0 mm/h
1.0 243 cm
12:30 Wolkig3 5.1 °C 83 %
2.5 °C
1024.3 hPa 3.2 km/h
1 Bft
11.2 km/h
2 Bft
O -
0.0 mm/h
0.9 244 cm
12:45 Wolkig3 5.7 °C 82 %
2.9 °C
1024.3 hPa 4.7 km/h
1 Bft
11.2 km/h
2 Bft
SO -
0.0 mm/h
0.9 244 cm
13:00 Wolkig3 6.3 °C 79 %
2.9 °C
1024.3 hPa 4.7 km/h
1 Bft
11.2 km/h
2 Bft
OSO 0.00 mm
0.0 mm/h
0.9 244 cm
13:15 Wolkig3 6.2 °C 78 %
2.7 °C
1024.2 hPa 3.2 km/h
1 Bft
11.2 km/h
2 Bft
O -
0.0 mm/h
0.9 244 cm
13:30 Wolkig3 6.2 °C 79 %
2.8 °C
1024.2 hPa 3.2 km/h
1 Bft
11.2 km/h
2 Bft
O -
0.0 mm/h
0.9 244 cm
13:45 Stark bewölkt3 6.2 °C 79 %
2.8 °C
1024.2 hPa 3.2 km/h
1 Bft
13.0 km/h
3 Bft
OSO -
0.0 mm/h
0.8 244 cm
14:00 Wolkig3 6.2 °C 81 %
3.2 °C
1024.1 hPa 4.7 km/h
1 Bft
13.0 km/h
3 Bft
OSO 0.00 mm
0.0 mm/h
0.8 246 cm
14:15 Wolkig3 5.3 °C 81 %
2.3 °C
1024.0 hPa 6.5 km/h
2 Bft
13.0 km/h
3 Bft
OSO -
0.0 mm/h
0.6 245 cm
14:30 Wolkig3 5.8 °C 81 %
2.8 °C
1023.8 hPa 4.7 km/h
1 Bft
13.0 km/h
3 Bft
OSO -
0.0 mm/h
0.0 246 cm
14:45 Leicht bewölkt3 5.8 °C 81 %
2.8 °C
1023.8 hPa 4.7 km/h
1 Bft
11.2 km/h
2 Bft
ONO -
0.0 mm/h
0.0 246 cm
15:00 Leicht bewölkt3 5.8 °C 81 %
2.8 °C
1023.6 hPa 3.2 km/h
1 Bft
11.2 km/h
2 Bft
OSO 0.00 mm
0.0 mm/h
0.0 246 cm
15:15 Sonnig2 5.2 °C 81 %
2.2 °C
1023.6 hPa 3.2 km/h
1 Bft
9.7 km/h
2 Bft
O -
0.0 mm/h
0.0 246 cm
15:30 Sonnig2 4.7 °C 83 %
2.1 °C
1023.6 hPa 3.2 km/h
1 Bft
13.0 km/h
3 Bft
O -
0.0 mm/h
0.0 246 cm
15:45 Leicht bewölkt3 4.5 °C 84 %
2.0 °C
1023.7 hPa 4.7 km/h
1 Bft
13.0 km/h
3 Bft
OSO -
0.0 mm/h
0.0 246 cm
16:00 Leicht bewölkt3 3.8 °C 85 %
1.5 °C
1023.7 hPa 4.7 km/h
1 Bft
13.0 km/h
3 Bft
OSO 0.00 mm
0.0 mm/h
0.0 246 cm
16:15 Sonnig2 3.4 °C 87 %
1.4 °C
1023.7 hPa 4.7 km/h
1 Bft
11.2 km/h
2 Bft
O -
0.0 mm/h
0.0 246 cm
16:30 Wolkig3 3.0 °C 88 %
1.2 °C
1023.7 hPa 4.7 km/h
1 Bft
11.2 km/h
2 Bft
OSO -
0.0 mm/h
0.0 246 cm
16:45 Wolkig3 2.8 °C 89 %
1.2 °C
1023.5 hPa 4.7 km/h
1 Bft
13.0 km/h
3 Bft
OSO -
0.0 mm/h
0.0 246 cm
17:00 Wolkig3 2.6 °C 90 %
1.1 °C
1023.6 hPa 4.7 km/h
1 Bft
11.2 km/h
2 Bft
O 0.00 mm
0.0 mm/h
0.0 247 cm
17:15 Wolkenlos2 2.4 °C 90 %
0.9 °C
1023.5 hPa 4.7 km/h
1 Bft
13.0 km/h
3 Bft
OSO -
0.0 mm/h
0.0 246 cm
17:30 Wolkenlos2 2.2 °C 91 %
0.9 °C
1023.5 hPa 3.2 km/h
1 Bft
9.7 km/h
2 Bft
O -
0.0 mm/h
0.0 247 cm
17:45 Leicht bewölkt3 2.1 °C 91 %
0.8 °C
1023.6 hPa 3.2 km/h
1 Bft
9.7 km/h
2 Bft
O -
0.0 mm/h
0.0 247 cm
18:00 Leicht bewölkt3 2.0 °C 91 %
0.7 °C
1023.4 hPa 3.2 km/h
1 Bft
11.2 km/h
2 Bft
ONO 0.00 mm
0.0 mm/h
0.0 248 cm
18:15 Wolkenlos2 1.8 °C 91 %
0.5 °C
1023.4 hPa 3.2 km/h
1 Bft
9.7 km/h
2 Bft
ONO -
0.0 mm/h
0.0 247 cm
18:30 Wolkenlos2 1.6 °C 92 %
0.4 °C
1023.3 hPa 4.3 km/h
1 Bft
9.7 km/h
2 Bft
NNO -
0.0 mm/h
0.0 248 cm
18:45 Wolkenlos2 1.4 °C 92 %
0.2 °C
1023.2 hPa 3.2 km/h
1 Bft
9.7 km/h
2 Bft
ONO -
0.0 mm/h
0.0 248 cm
19:00 Wolkenlos2 1.2 °C 92 %
0.0 °C
1023.3 hPa 3.2 km/h
1 Bft
7.9 km/h
2 Bft
O 0.00 mm
0.0 mm/h
0.0 250 cm
19:15 Wolkenlos2 1.1 °C 92 %
-0.1 °C
1023.3 hPa 1.4 km/h
1 Bft
7.9 km/h
2 Bft
ONO -
0.0 mm/h
0.0 250 cm
19:30 Leicht bewölkt3 1.2 °C 93 %
0.2 °C
1023.4 hPa 3.2 km/h
1 Bft
6.5 km/h
2 Bft
O -
0.0 mm/h
0.0 250 cm
19:45 Leicht bewölkt3 1.1 °C 92 %
-0.1 °C
1023.5 hPa 1.4 km/h
1 Bft
11.2 km/h
2 Bft
OSO -
0.0 mm/h
0.0 249 cm
20:00 Leicht bewölkt3 1.4 °C 92 %
0.2 °C
1023.5 hPa 3.2 km/h
1 Bft
6.5 km/h
2 Bft
SO 0.00 mm
0.0 mm/h
0.0 250 cm
20:15 Leicht bewölkt3 1.1 °C 91 %
-0.2 °C
1023.6 hPa 1.4 km/h
1 Bft
6.5 km/h
2 Bft
OSO -
0.0 mm/h
0.0 250 cm
20:30 Leicht bewölkt3 0.8 °C 92 %
-0.3 °C
1023.5 hPa 1.4 km/h
1 Bft
4.7 km/h
1 Bft
O -
0.0 mm/h
0.0 250 cm
20:45 Wolkenlos2 0.7 °C 92 %
-0.4 °C
1023.5 hPa 3.2 km/h
1 Bft
6.5 km/h
2 Bft
OSO -
0.0 mm/h
0.0 250 cm
21:00 Wolkenlos2 0.7 °C 92 %
-0.4 °C
1023.5 hPa 1.4 km/h
1 Bft
4.7 km/h
1 Bft
SO 0.00 mm
0.0 mm/h
0.0 250 cm
21:15 Wolkenlos2 0.7 °C 92 %
-0.4 °C
1023.6 hPa 1.4 km/h
1 Bft
4.7 km/h
1 Bft
SO -
0.0 mm/h
0.0 251 cm
21:30 Wolkenlos3 0.7 °C 92 %
-0.4 °C
1023.5 hPa 1.4 km/h
1 Bft
6.5 km/h
2 Bft
O -
0.0 mm/h
0.0 251 cm
21:45 Leicht bewölkt3 0.5 °C 92 %
-0.6 °C
1023.4 hPa 3.2 km/h
1 Bft
6.5 km/h
2 Bft
SO -
0.0 mm/h
0.0 251 cm
22:00 Leicht bewölkt3 0.4 °C 93 %
-0.6 °C
1023.4 hPa 1.8 km/h
1 Bft
6.5 km/h
2 Bft
OSO 0.00 mm
0.0 mm/h
0.0 251 cm
22:15 Wolkenlos3 0.3 °C 93 %
-0.7 °C
1023.1 hPa 1.4 km/h
1 Bft
4.7 km/h
1 Bft
ONO -
0.0 mm/h
0.0 251 cm
22:30 Wolkenlos3 0.2 °C 93 %
-0.8 °C
1023.0 hPa 3.2 km/h
1 Bft
6.5 km/h
2 Bft
O -
0.0 mm/h
0.0 253 cm
22:45 Stark bewölkt3 0.2 °C 93 %
-0.8 °C
1022.9 hPa 3.2 km/h
1 Bft
6.5 km/h
2 Bft
OSO -
0.0 mm/h
0.0 252 cm
23:00 Wolkig3 0.2 °C 93 %
-0.8 °C
1022.8 hPa 1.4 km/h
1 Bft
4.7 km/h
1 Bft
O 0.00 mm
0.0 mm/h
0.0 252 cm
23:15 Wolkenlos3 0.1 °C 93 %
-0.9 °C
1022.1 hPa 1.4 km/h
1 Bft
6.5 km/h
2 Bft
OSO -
0.0 mm/h
0.0 254 cm
23:30 Wolkenlos3 0.1 °C 93 %
-0.9 °C
1022.1 hPa 1.4 km/h
1 Bft
6.5 km/h
2 Bft
ONO -
0.0 mm/h
0.0 253 cm
23:45 Leicht bewölkt3 0.2 °C 92 %
-0.9 °C
1022.1 hPa 1.4 km/h
1 Bft
4.7 km/h
1 Bft
OSO -
0.0 mm/h
0.0 254 cm
00:00 Leicht bewölkt3 0.1 °C 92 %
-1.0 °C
1022.0 hPa 0.0 km/h
0 Bft
1.4 km/h
1 Bft
OSO 0.00 mm
0.0 mm/h
0.0 254 cm
Datenbasis Wetterzustand: ¹ Wetterstation Köln-Nippes (Stellwerk), ² powered by , ³ powered by OpenWeatherMap, CC BY-SA 4.0; Warnlage: DWD, Pegelonline, LANUV; Pegel Köln: Pegelonline
 
Extrem- und Durchschnittswerte
  Temperatur Luftfeuchte Luftdruck Wind Windböen Wind-
richtung
Regen UV-Index Pegel Köln KKT
Min

Max

Ø
0.0 °C
23:09 Uhr
6.8 °C
13:02 Uhr
2.6 °C
77.0 %
13:08 Uhr
94.0 %
08:17 Uhr
88.6 %
1020.1 hPa
00:00 Uhr
1024.6 hPa
11:18 Uhr
1023.1 hPa
 
 
6.5 km/h
14:13 Uhr
2.6 km/h
 
 
13.0 km/h
13:31 Uhr
 
 
 
OSO
 
 
 
 
0.00 mm
 
 
 
 
1.0
11:52 Uhr
 
235 cm
00:15 Uhr
254 cm
23:15 Uhr
 
KT
  Taupunkt   Wind Windböen   Regenrate Ozon Sonne Mond
Min

Max

Ø
-1.0 °C
23:09 Uhr
3.6 °C
13:00 Uhr
0.9 °C
   
 
2 Bft
14:13 Uhr
2.6 km/h
 
 
3 Bft
13:31 Uhr
 
   
 
0.0 mm/h
00:00 Uhr
 
 
Hürth
34 μg/m³
00:00 Uhr
 
▲ 08:11 Uhr
▼ 16:30 Uhr
▲ 11:49 Uhr
▼ 20:01 Uhr
KKT = Klimatologischer Kenntag: ET = Eistag, FT = Frosttag, KT = Kalter Tag, ST = Sommertag, HT = Hitzetag, TN = Tropennacht, NT = Niederschlagstag, SH = Schneehöhe (Max Tag); Datenbasis Ozon: LANUV, Land NRW, dl-de/by-2-0
Für dieses Datum steht leider (noch) kein Tagesrückblick zur Verfügung.
 
Tagesgrafik
Grafik zum Vergrößern anklicken
 
Detaillierte Warnlage
FROST
30.11.19, 02:00 Uhr bis 09:00 Uhr
Vor allem bei Aufklaren tritt leichter Frost bis -1 °C auf. In Bodennähe wird leichter Frost bis -3 °C erwartet.
NEBEL
30.11.19, 17:14 Uhr bis 21:00 Uhr
Es tritt verbreitet Nebel mit Sichtweiten unter 150 Metern auf.
FROST
30.11.19, 20:00 Uhr bis 01.12.19, 10:00 Uhr
Es tritt leichter Frost zwischen 0 °C und -3 °C auf. In Bodennähe wird mäßiger Frost um -5 °C erwartet.













30.11.19

30.11.19

30.11.19

30.11.19

30.11.19

30.11.19

30.11.19
Datenbasis: DWD, Pegelonline, LANUV


Zurück zur Eingabemaske